STARLINK-3368

decayed
NORAD ID: 51107 Int'l Des: 2022-005 Owner: SPXS Country: US Constellation: starlink
LEOCIRCULAR
Group

About STARLINK-3368

Description loading...

Altitude History

Altitude vs Time

uPlot chart will show altitude changes over time

Two-Line Element Set

1 51107U 22005D 24360.31536888 .31805419 12462-4 20477-2 0 9992
2 51107 53.1968 86.8719 0005376 352.5164 118.9943 16.40967245163867
Epoch: Dec 25, 2024 • Age: 6338 hours

Current Status

Position data unavailable
Launch Date Jan 19, 2022
Age 3.6 years
Decay Date Dec 25, 2024
Type internet

Technical Details

Classification Payload
Mass 297.00 kg
Dry Mass 275.00 kg
Total Mass 297.00 kg
Length 0.20 m
Diameter 2.80 m
Span 9.00 m
Shape Box + pan
Manufacturer SPXS
Bus Type Starlink
Phase Status Reentered
Owner/State SPXS/US

Large Constellations

Loading constellations...